This is the latest recevied weather packets stored in our database for station/object N9ALD. If no packets are shown the sender has not sent any weather packets the latest 1 day(s).
| Time | Temp. | Humidity | Pressure | Rain* | Wind** | Luminosity | Snow |
|---|---|---|---|---|---|---|---|
| 1778070843 | 8.89° C | 97% | 1009.8 hPa | 0 mm | - | 55 W/m² | - |
| 1778069935 | 8.33° C | 99% | 1009.5 hPa | 0 mm | - | 120 W/m² | - |
| 1778066909 | 6.67° C | 99% | 1008.4 hPa | 0 mm | - | 25 W/m² | - |
| 1778065699 | 6.67° C | 99% | 1008.3 hPa | 0 mm | - | 15 W/m² | - |
| 1778064487 | 6.67° C | 98% | 1007.6 hPa | 0 mm | - | 4 W/m² | - |
| 1778063579 | 7.22° C | 98% | 1007.5 hPa | 0 mm | - | 1 W/m² | - |
| 1778063276 | 7.22° C | 98% | 1007.6 hPa | 0 mm | - | 0 W/m² | - |
| 1778062974 | 7.22° C | 98% | 1007.3 hPa | 0 mm | - | 0 W/m² | - |
| 1778062671 | 7.22° C | 98% | 1007.2 hPa | 0 mm | - | 0 W/m² | - |
| 1778062367 | 7.22° C | 98% | 1007 hPa | 0 mm | - | 0 W/m² | - |
| 1778062065 | 7.78° C | 98% | 1006.8 hPa | 0 mm | - | 0 W/m² | - |
| 1778061462 | 7.78° C | 98% | 1006.6 hPa | 0 mm | - | 0 W/m² | - |
| 1778061158 | 7.78° C | 98% | 1007.2 hPa | 0 mm | - | 0 W/m² | - |
| 1778060855 | 7.78° C | 98% | 1007.2 hPa | 0 mm | - | 0 W/m² | - |
| 1778060553 | 7.78° C | 98% | 1007.4 hPa | 0 mm | - | 0 W/m² | - |
| 1778059646 | 7.78° C | 98% | 1007.4 hPa | 0 mm | - | 0 W/m² | - |
| 1778059041 | 7.78° C | 98% | 1006.9 hPa | 0 mm | - | 0 W/m² | - |
| 1778058738 | 7.78° C | 98% | 1007.1 hPa | 0 mm | - | 0 W/m² | - |
| 1778058436 | 7.78° C | 98% | 1007.2 hPa | 0 mm | - | 0 W/m² | - |
| 1778056919 | 7.78° C | 98% | 1006.4 hPa | 0 mm | - | 0 W/m² | - |
| 1778056011 | 7.78° C | 98% | 1006.7 hPa | 1.78 mm | - | 0 W/m² | - |
| 1778055711 | 7.78° C | 98% | 1006.7 hPa | 0 mm | - | 0 W/m² | - |
| 1778055409 | 7.78° C | 98% | 1006.7 hPa | 0 mm | - | 0 W/m² | - |
| 1778055107 | 7.78° C | 98% | 1006.8 hPa | 0 mm | - | 0 W/m² | - |
| 1778054804 | 7.78° C | 98% | 1006.8 hPa | 0 mm | - | 0 W/m² | - |
* Rain latest hour (hover to see other rain measurements)
** Current wind speed in m/s (hover to see current wind gust speed)